TimeHST,TemperatureF,Dew PointF,Humidity,Sea Level PressureIn,VisibilityMPH,Wind Direction,Wind SpeedMPH,Gust SpeedMPH,PrecipitationIn,Events,Conditions,WindDirDegrees,DateUTC
12:53 AM,71.1,61.0,70,30.10,10.0,East,5.8,-,N/A,,Clear,100,2011-12-29 10:53:00
1:53 AM,69.1,60.1,73,30.09,10.0,ENE,3.5,-,N/A,,Clear,60,2011-12-29 11:53:00
2:53 AM,68.0,60.1,76,30.06,10.0,East,3.5,-,N/A,,Clear,90,2011-12-29 12:53:00
3:53 AM,66.9,60.1,79,30.06,10.0,ENE,4.6,-,N/A,,Clear,60,2011-12-29 13:53:00
4:53 AM,66.9,57.9,73,30.06,10.0,East,4.6,-,N/A,,Clear,90,2011-12-29 14:53:00
5:53 AM,66.9,60.1,79,30.06,10.0,ESE,4.6,-,N/A,,Clear,110,2011-12-29 15:53:00
6:21 AM,68.0,60.8,78,30.07,10.0,ESE,6.9,-,N/A,,Mostly Cloudy,110,2011-12-29 16:21:00
6:36 AM,66.2,60.8,83,30.07,10.0,ESE,6.9,-,N/A,,Scattered Clouds,110,2011-12-29 16:36:00
6:53 AM,68.0,60.1,76,30.08,10.0,East,4.6,-,N/A,,Clear,80,2011-12-29 16:53:00
7:53 AM,70.0,60.1,71,30.09,10.0,East,5.8,-,N/A,,Clear,100,2011-12-29 17:53:00
8:53 AM,75.0,64.0,69,30.10,10.0,SE,6.9,-,N/A,,Clear,140,2011-12-29 18:53:00
9:53 AM,77.0,61.0,58,30.11,10.0,SSE,4.6,-,N/A,,Clear,160,2011-12-29 19:53:00
10:53 AM,78.1,64.0,62,30.09,10.0,SW,10.4,-,N/A,,Clear,220,2011-12-29 20:53:00
11:53 AM,78.1,64.0,62,30.06,10.0,SSW,10.4,-,N/A,,Clear,200,2011-12-29 21:53:00
12:53 PM,78.1,64.9,64,30.04,10.0,SSW,9.2,-,N/A,,Overcast,210,2011-12-29 22:53:00
1:53 PM,78.1,64.0,62,30.01,10.0,SW,6.9,-,N/A,,Mostly Cloudy,220,2011-12-29 23:53:00
2:53 PM,77.0,64.9,66,30.00,10.0,SW,9.2,-,N/A,,Mostly Cloudy,230,2011-12-30 00:53:00
3:53 PM,77.0,64.0,64,30.00,10.0,WSW,5.8,-,N/A,,Overcast,250,2011-12-30 01:53:00
4:53 PM,75.9,62.1,62,30.01,10.0,South,6.9,-,N/A,,Overcast,180,2011-12-30 02:53:00
5:53 PM,77.0,55.9,48,30.01,10.0,NNE,16.1,-,N/A,,Mostly Cloudy,30,2011-12-30 03:53:00
6:00 PM,77.0,55.4,47,30.01,10.0,NNE,15.0,-,N/A,,Mostly Cloudy,30,2011-12-30 04:00:00
6:53 PM,75.0,55.9,51,30.03,10.0,NNE,11.5,-,N/A,,Overcast,30,2011-12-30 04:53:00
7:53 PM,73.9,57.0,55,30.03,10.0,North,11.5,-,N/A,,Mostly Cloudy,10,2011-12-30 05:53:00
8:53 PM,73.9,59.0,59,30.04,10.0,ESE,5.8,-,N/A,,Overcast,120,2011-12-30 06:53:00
9:53 PM,73.9,57.9,57,30.05,10.0,NNE,5.8,-,N/A,,Overcast,30,2011-12-30 07:53:00
10:53 PM,73.0,60.1,64,30.04,10.0,Calm,Calm,-,N/A,,Mostly Cloudy,0,2011-12-30 08:53:00
11:53 PM,72.0,57.0,59,30.04,10.0,NE,4.6,-,N/A,,Mostly Cloudy,40,2011-12-30 09:53:00